Tracking 32968 objects as of 18-Jan-2026
HD Live streaming from Space Station
objects crossing your sky now

SBS 3

Track SBS 3 now!
SBS 3 is classified as:


NORAD ID: 13651
Int'l Code: 1982-110B
Perigee: 35,878.4 km
Apogee: 35,906.0 km
Inclination: 12.7 °
Period: 1,441.1 minutes
Semi major axis: 42263 km
RCS: 15.8489 m2 (large)
Launch date: November 11, 1982
Source: United States (US)
Launch site: AIR FORCE EASTERN TEST RANGE (AFETR)
Your satellite tracking list
Your tracking list is empty




NASA's NSSDC Master Catalog

Two Line Element Set (TLE):
1 13651U 82110B   26017.35269483 -.00000152  00000-0  00000-0 0  9993
2 13651  12.6616 335.4263 0003262 112.1684  69.2742  0.99921493 45030
Source of the keplerian elements: AFSPC